Location: ??????
(42.0089°N, 44.3281°E)
Time: 19:58:29
(UTC+00:00)

Cosmos 220 Rocket - Pass Details

Date: 24 October 2021
Orbit: 575 x 615 km, 74.0° (Epoch: 02 December)

Event Time Altitude Azimuth Distance (km) Brightness Sun altitude
Rises 15:15:51 0° 187° (S) 2,868 7.6 -13.3°
Reaches altitude 10° 15:18:07 10° 183° (S) 1,966 6.7 -13.8°
Maximum altitude 15:22:25 55° 106° (ESE) 741 4.1 -14.5°
Drops below altitude 10° 15:26:42 10° 29° (NNE) 1,966 6.3 -15.3°
Enters shadow 15:27:33 - 27° (NNE) 2,296 6.7 -15.5°
